Regional Weather Roundup
Issued by NWS State College, PA

Home | Current Version | Previous Version | Text Only | Print | Product List | Glossary On
Versions: 1 2 3 4 5 6 7 8 9 10 11 12 13 14 15 16 17 18 19 20 21 22 23 24 25 26 27 28 29 30 31 32 33 34 35 36 37 38 39 40 41 42 43 44 45 46 47 48 49 50
953
ASUS41 KCTP 200710
RWRCTP

REGIONAL WEATHER ROUNDUP
NATIONAL WEATHER SERVICE STATE COLLEGE PA
300 AM EDT FRI APR 20 2018

Note: "fair" indicates few or no clouds below 12,000 feet with no
significant weather and/or obstructions to visibility.

* = STATION THAT DOES NOT REPORT PRECIPITATION /E.G. RAIN...SNOW...ETC/
    THUNDER OR FOG.

PAZ002>004-007>009-013>016-020>023-029>032-200800-
WESTERN PENNSYLVANIA

CITY           SKY/WX    TMP DP  RH WIND       PRES   REMARKS
ERIE           FAIR      36  27  69 NW10      30.26R
MEADVILLE      FAIR      27  23  85 W7        30.24R
FRANKLIN*      FAIR      27  22  81 W9        30.23R
NEW CASTLE     FAIR      29  23  78 W5        30.29R
BEAVER COUNTY  NOT AVBL
BUTLER*        FAIR      28  23  81 W5        30.26R
PITTSBURGH INT FAIR      30  22  72 W6        30.26F
PITTSBURGH     FAIR      30  23  75 W9        30.26R
INDIANA*       CLEAR     30  25  80 W7        30.25S
LATROBE        FAIR      28  23  80 W5        30.27R
WASHINGTON CO* FAIR      31  22  69 CALM      30.31S
$$

PAZ004>006-010>012-017>019-024>028-033>037-041-042-045-046-049>053-200800-
CENTRAL PENNSYLVANIA

CITY           SKY/WX    TMP DP  RH WIND       PRES   REMARKS
BRADFORD       FAIR      28  20  71 NW13      30.12S
DUBOIS         FAIR      27  21  78 W7        30.16S
CLEARFIELD     FAIR      29  21  72 W5        30.17S
JOHNSTOWN      FAIR      27  20  75 NW15G22   30.15R
ALTOONA        FAIR      33  20  58 NW12G20   30.17S
STATE COLLEGE    N/A     32  21  63 NW7       30.15S
WILLIAMSPORT   CLOUDY    34  24  67 W8        30.14R
SELINSGROVE    CLOUDY    35  23  61 NW9       30.16R
FT INDIANTOWN  FAIR      36  25  66 W7        30.14R
CAPITAL CITY   FAIR      39  21  48 NW9       30.16R
HARRISBURG     FAIR      38  21  50 NW14G21   30.15R
YORK           FAIR      34  23  64 W8        30.16R
$$

PAZ038>040-043-044-047-048-054-055-060>062-067>071-200800-
EASTERN PENNSYLVANIA

CITY           SKY/WX    TMP DP  RH WIND       PRES   REMARKS
SCRANTON       FLURRIES  31  27  85 NW9       30.07S
MOUNT POCONO   FLURRIES  27  23  85 W15G23    29.99R
ALLENTOWN      FAIR      36  20  52 NW9       30.09R
QUAKERTOWN*    SUNNY     34  23  64 W9        30.09S
READING        FAIR      36  27  69 NW13      30.12R
LANCASTER      FLURRIES  37  26  64 NW13G20   30.14R
COATESVILLE    FLURRIES  36  27  69 NW14G22   30.13R
POTTSTOWN      FAIR      35  22  58 NW8       30.13R
BLUE BELL      FAIR      34  27  75 W3        30.13R
DOYLESTOWN     FAIR      35  23  61 NW6       30.08R
WILLOW GROVE   NOT AVBL
NORTH PHILA    FAIR      39  24  55 NW9       30.12R
PHILADELPHIA   FAIR      39  22  50 NW15G23   30.13R
$$




USA.gov is the U.S. government's official web portal to all federal, state and local government web resources and services.